FW9446 Weather Reports


Display with metric or nautical units.
time (UTC)temp
F
wind
direction
speed
MPH
gust
MPH
rain 1hr
in
rain 24hr
in
rain mn
in
humidity
%
barometer
mb
20260510185557 80 244 3.0 7.0 0.00 0.00 0.00 50 1017.2
20260510185057 80 329 1.0 5.0 0.00 0.00 0.00 54 1017.2
20260510184603 80 0 0.0 3.0 0.00 0.00 0.00 55 1017.4
20260510184057 80 269 1.0 7.0 0.00 0.00 0.00 49 1017.4
20260510183557 80 0 1.0 7.0 0.00 0.00 0.00 48 1017.5
20260510183100 80 0 1.0 5.0 0.00 0.00 0.00 47 1017.3
20260510182604 80 246 0.0 4.0 0.00 0.00 0.00 48 1017.3
20260510182101 80 142 1.0 4.0 0.00 0.00 0.00 50 1017.4
20260510181600 80 303 0.0 3.0 0.00 0.00 0.00 49 1017.3
20260510181101 80 312 1.0 3.0 0.00 0.00 0.00 50 1017.4
20260510180603 80 0 0.0 2.0 0.00 0.00 0.00 56 1017.4
20260510180106 79 0 0.0 2.0 0.00 0.00 0.00 53 1017.5
20260510175600 79 0 0.0 5.0 0.00 0.00 0.00 49 1017.5
20260510175057 79 0 0.0 5.0 0.00 0.00 0.00 52 1017.6
20260510174605 79 229 0.0 5.0 0.00 0.00 0.00 52 1017.6
20260510174059 78 0 1.0 5.0 0.00 0.00 0.00 56 1017.7
20260510173604 78 227 0.0 4.0 0.00 0.00 0.00 57 1017.8
20260510173104 78 0 0.0 2.0 0.00 0.00 0.00 54 1017.8
20260510172557 78 69 0.0 3.0 0.00 0.00 0.00 57 1017.9
20260510172057 78 76 0.0 5.0 0.00 0.00 0.00 61 1017.8
20260510171559 78 249 2.0 5.0 0.00 0.00 0.00 53 1017.9
20260510171056 79 111 0.0 3.0 0.00 0.00 0.00 60 1018.0
20260510170600 79 0 0.0 3.0 0.00 0.00 0.00 60 1017.9
20260510170101 78 0 0.0 5.0 0.00 0.00 0.00 60 1018.0
20260510165603 78 196 0.0 5.0 0.00 0.00 0.00 53 1018.0
20260510165100 78 215 0.0 7.0 0.00 0.00 0.00 52 1018.0
20260510164610 78 100 0.0 7.0 0.00 0.00 0.00 52 1018.0
20260510164100 78 190 0.0 5.0 0.00 0.00 0.00 53 1018.0
20260510163603 78 202 1.0 4.0 0.00 0.00 0.00 53 1018.1
20260510163102 78 0 0.0 3.0 0.00 0.00 0.00 54 1018.1
20260510162600 77 0 0.0 3.0 0.00 0.00 0.00 52 1018.0
20260510162057 77 0 0.0 1.0 0.00 0.00 0.00 52 1018.1
20260510161558 77 0 0.0 4.0 0.00 0.00 0.00 57 1018.2
20260510161057 76 0 0.0 4.0 0.00 0.00 0.00 63 1018.1
20260510160559 75 0 0.0 3.0 0.00 0.00 0.00 60 1018.0
20260510160059 75 0 0.0 3.0 0.00 0.00 0.00 73 1018.1
20260510155558 75 0 1.0 3.0 0.00 0.00 0.00 65 1017.9
20260510155057 75 0 0.0 2.0 0.00 0.00 0.00 67 1018.1
20260510154603 74 221 0.0 3.0 0.00 0.00 0.00 68 1018.1
20260510154057 74 0 0.0 3.0 0.00 0.00 0.00 72 1018.2
20260510153556 74 0 0.0 3.0 0.00 0.00 0.00 77 1018.1
20260510153059 73 42 0.0 3.0 0.00 0.00 0.00 76 1018.0
20260510152557 73 136 1.0 3.0 0.00 0.00 0.00 78 1018.0
20260510152056 73 230 0.0 4.0 0.00 0.00 0.00 76 1018.1
20260510151557 73 0 0.0 4.0 0.00 0.00 0.00 79 1018.1
20260510151056 72 0 0.0 3.0 0.00 0.00 0.00 81 1018.2
20260510150558 72 277 0.0 3.0 0.00 0.00 0.00 83 1018.1
20260510150122 71 0 0.0 3.0 0.00 0.00 0.00 83 1018.1
20260510145600 71 0 0.0 2.0 0.00 0.00 0.00 84 1017.9
20260510145056 70 0 0.0 2.0 0.00 0.00 0.00 85 1018.0
20260510144619 69 0 0.0 2.0 0.00 0.00 0.00 87 1018.1
20260510144058 68 0 0.0 2.0 0.00 0.00 0.00 88 1018.0
20260510143555 67 123 0.0 2.0 0.00 0.00 0.00 90 1018.1
20260510143101 67 0 0.0 2.0 0.00 0.00 0.00 93 1018.2
20260510142557 66 163 0.0 2.0 0.00 0.00 0.00 91 1018.1
20260510142057 66 223 0.0 2.0 0.00 0.00 0.00 94 1018.1
20260510141603 65 0 0.0 2.0 0.00 0.00 0.00 98 1018.1
20260510141058 65 0 0.0 2.0 0.00 0.00 0.00 99 1017.9
20260510140557 64 0 0.0 0.0 0.00 0.00 0.00 99 1018.1
20260510140059 63 0 0.0 0.0 0.00 0.00 0.00 100 1018.1
20260510135556 63 0 0.0 0.0 0.00 0.00 0.00 100 1018.1
20260510135057 62 0 0.0 0.0 0.00 0.00 0.00 100 1018.1
20260510134607 62 0 0.0 0.0 0.00 0.00 0.00 100 1018.0
20260510134056 61 0 0.0 1.0 0.00 0.00 0.00 100 1018.1
20260510133557 61 0 0.0 1.0 0.00 0.00 0.00 100 1017.9
20260510133103 60 0 0.0 0.0 0.00 0.00 0.00 100 1017.9
20260510132556 59 0 0.0 0.0 0.00 0.00 0.00 100 1018.0
20260510132059 59 0 0.0 0.0 0.00 0.00 0.00 100 1017.8
20260510131600 58 0 0.0 0.0 0.00 0.00 0.00 100 1017.8
20260510131057 57 0 0.0 0.0 0.00 0.00 0.00 100 1017.9
20260510130556 57 0 0.0 0.0 0.00 0.00 0.00 99 1017.9
20260510130058 56 0 0.0 0.0 0.00 0.00 0.00 99 1018.0
20260510125558 56 0 0.0 0.0 0.00 0.00 0.00 99 1017.9
20260510125056 55 0 0.0 0.0 0.00 0.00 0.00 99 1018.0
20260510124602 55 0 0.0 0.0 0.00 0.00 0.00 99 1017.9
20260510124057 55 0 0.0 0.0 0.00 0.00 0.00 99 1017.8
20260510123557 54 0 0.0 0.0 0.00 0.00 0.00 99 1017.9
20260510123058 54 0 0.0 0.0 0.00 0.00 0.00 99 1017.8
20260510122556 54 0 0.0 0.0 0.00 0.00 0.00 99 1017.7
20260510122056 54 0 0.0 0.0 0.00 0.00 0.00 99 1017.8
20260510121607 53 0 0.0 0.0 0.00 0.00 0.00 99 1017.7
20260510121102 53 0 0.0 0.0 0.00 0.00 0.00 98 1017.7
20260510120557 52 0 0.0 0.0 0.00 0.00 0.00 98 1017.6
20260510120106 52 0 0.0 0.0 0.00 0.00 0.00 98 1017.7
20260510115556 52 0 0.0 0.0 0.00 0.00 0.00 98 1017.6
20260510115056 52 0 0.0 0.0 0.00 0.00 0.00 98 1017.4
20260510114617 52 0 0.0 0.0 0.00 0.00 0.00 98 1017.5
20260510114056 52 0 0.0 0.0 0.00 0.00 0.00 98 1017.5
20260510113557 51 0 0.0 0.0 0.00 0.00 0.00 98 1017.2
20260510113103 51 0 0.0 0.0 0.00 0.00 0.00 98 1017.1
20260510112556 51 0 0.0 0.0 0.00 0.00 0.00 98 1017.0
20260510112057 51 0 0.0 0.0 0.00 0.00 0.00 98 1016.8
20260510111607 51 0 0.0 0.0 0.00 0.00 0.00 98 1016.9
20260510111056 51 0 0.0 0.0 0.00 0.00 0.00 98 1016.9
20260510110558 51 0 0.0 0.0 0.00 0.00 0.00 98 1016.7
20260510110056 51 0 0.0 0.0 0.00 0.00 0.00 98 1016.6
20260510105601 51 0 0.0 0.0 0.00 0.00 0.00 98 1016.4
20260510105058 51 0 0.0 0.0 0.00 0.00 0.00 98 1016.2
20260510104620 51 0 0.0 0.0 0.00 0.00 0.00 98 1016.2
20260510104058 51 0 0.0 0.0 0.00 0.00 0.00 98 1016.1
20260510103558 52 0 0.0 0.0 0.00 0.00 0.00 98 1016.0
20260510103102 52 0 0.0 0.0 0.00 0.00 0.00 98 1016.0
20260510102558 52 0 0.0 0.0 0.00 0.00 0.00 97 1016.0
20260510102101 52 0 0.0 0.0 0.00 0.00 0.00 97 1016.1
20260510101605 52 0 0.0 0.0 0.00 0.00 0.00 97 1016.0
20260510101058 52 0 0.0 0.0 0.00 0.00 0.00 97 1016.0
20260510100558 52 0 0.0 0.0 0.00 0.00 0.00 98 1015.9
20260510100105 52 0 0.0 0.0 0.00 0.00 0.00 98 1015.9
20260510095557 52 0 0.0 0.0 0.00 0.00 0.00 98 1015.9
20260510095058 52 0 0.0 0.0 0.00 0.00 0.00 97 1015.8
20260510094607 52 0 0.0 0.0 0.00 0.00 0.00 97 1015.8
20260510094058 52 0 0.0 0.0 0.00 0.00 0.00 97 1015.8
20260510093601 52 0 0.0 0.0 0.00 0.00 0.00 97 1015.7
20260510093103 52 0 0.0 0.0 0.00 0.00 0.00 97 1015.6
20260510092601 52 0 0.0 0.0 0.00 0.00 0.00 97 1015.5
20260510092058 52 0 0.0 0.0 0.00 0.00 0.00 97 1015.4
20260510091604 52 0 0.0 0.0 0.00 0.00 0.00 97 1015.6
20260510091058 52 0 0.0 0.0 0.00 0.00 0.00 97 1015.5
20260510090558 53 0 0.0 0.0 0.00 0.00 0.00 97 1015.6
20260510090104 53 0 0.0 0.0 0.00 0.00 0.00 97 1015.5
20260510085602 53 0 0.0 0.0 0.00 0.00 0.00 97 1015.4
20260510085058 53 0 0.0 0.0 0.00 0.00 0.00 97 1015.2
20260510084603 53 0 0.0 0.0 0.00 0.00 0.00 97 1015.2
20260510084058 53 0 0.0 0.0 0.00 0.00 0.00 97 1015.1
20260510083559 53 0 0.0 0.0 0.00 0.00 0.00 97 1015.1
20260510083100 53 0 0.0 0.0 0.00 0.00 0.00 97 1014.9
20260510082601 53 0 0.0 0.0 0.00 0.00 0.00 97 1014.7
20260510082058 53 0 0.0 0.0 0.00 0.00 0.00 97 1014.8
20260510081558 53 0 0.0 0.0 0.00 0.00 0.00 97 1014.8
20260510081059 53 0 0.0 0.0 0.00 0.00 0.00 97 1014.6
20260510080558 53 0 0.0 0.0 0.00 0.00 0.00 97 1014.6
20260510080101 53 0 0.0 0.0 0.00 0.00 0.00 97 1014.5
20260510075558 53 0 0.0 0.0 0.00 0.00 0.00 97 1014.4
20260510075058 53 0 0.0 0.0 0.00 0.00 0.00 97 1014.3
20260510074607 54 0 0.0 0.0 0.00 0.00 0.00 97 1014.4
20260510074100 54 0 0.0 0.0 0.00 0.00 0.00 97 1014.4
20260510073559 54 0 0.0 0.0 0.00 0.00 0.00 97 1014.5
20260510073056 54 0 0.0 0.0 0.00 0.00 0.00 97 1014.4
20260510072558 54 0 0.0 0.0 0.00 0.00 0.00 97 1014.4
20260510072058 54 0 0.0 0.0 0.00 0.00 0.00 97 1014.4
20260510071603 54 0 0.0 0.0 0.00 0.00 0.00 97 1014.4
20260510071058 54 0 0.0 0.0 0.00 0.00 0.00 97 1014.4
20260510070600 54 0 0.0 0.0 0.00 0.00 0.00 97 1014.3
20260510070109 54 0 0.0 0.0 0.00 0.00 0.00 97 1014.4
20260510065558 54 0 0.0 0.0 0.00 0.00 0.00 97 1014.5
20260510065058 54 0 0.0 0.0 0.00 0.00 0.00 97 1014.4
20260510064602 55 0 0.0 0.0 0.00 0.00 0.00 97 1014.4
20260510064057 55 0 0.0 0.0 0.00 0.00 0.00 97 1014.4
20260510063558 55 0 0.0 0.0 0.00 0.00 0.00 97 1014.3
20260510063101 55 0 0.0 0.0 0.00 0.00 0.00 97 1014.2
20260510062558 55 0 0.0 0.0 0.00 0.00 0.00 97 1014.3
20260510062058 55 0 0.0 0.0 0.00 0.00 0.00 97 1014.3
20260510061558 55 0 0.0 0.0 0.00 0.00 0.00 97 1014.3
20260510061059 55 0 0.0 0.0 0.00 0.00 0.00 97 1014.4
20260510060558 55 0 0.0 0.0 0.00 0.00 0.00 97 1014.4
20260510055558 56 0 0.0 0.0 0.00 0.00 0.00 97 1014.3
20260510055058 56 0 0.0 0.0 0.00 0.00 0.00 96 1014.3
20260510054601 56 0 0.0 0.0 0.00 0.00 0.00 96 1014.4
20260510054057 56 0 0.0 0.0 0.00 0.00 0.00 97 1014.6
20260510053602 56 0 0.0 0.0 0.00 0.00 0.00 97 1014.4
20260510053057 56 0 0.0 0.0 0.00 0.00 0.00 96 1014.5
20260510052558 56 0 0.0 0.0 0.00 0.00 0.00 96 1014.4
20260510052058 56 0 0.0 0.0 0.00 0.00 0.00 96 1014.5
20260510051558 56 0 0.0 0.0 0.00 0.00 0.00 96 1014.4
20260510051100 56 0 0.0 0.0 0.00 0.00 0.00 96 1014.5
20260510050557 57 0 0.0 0.0 0.00 0.00 0.00 96 1014.7
20260510050059 57 0 0.0 0.0 0.00 0.00 0.00 96 1014.6
20260510045601 57 0 0.0 0.0 0.00 0.00 0.00 96 1014.7
20260510045058 57 0 0.0 0.0 0.00 0.00 0.00 96 1014.7
20260510044611 57 0 0.0 0.0 0.00 0.00 0.00 96 1014.7
20260510044100 57 0 0.0 0.0 0.00 0.00 0.00 96 1014.8
20260510043558 57 0 0.0 0.0 0.00 0.00 0.00 96 1014.8
20260510043106 58 0 0.0 0.0 0.00 0.00 0.00 96 1014.7
20260510042558 58 0 0.0 0.0 0.00 0.00 0.00 96 1014.7
20260510042102 58 0 0.0 0.0 0.00 0.00 0.00 96 1014.8
20260510041600 58 0 0.0 0.0 0.00 0.00 0.00 95 1014.7
20260510041058 58 0 0.0 0.0 0.00 0.00 0.00 95 1014.7
20260510040558 58 0 0.0 0.0 0.00 0.00 0.00 96 1014.7
20260510040059 58 0 0.0 0.0 0.00 0.00 0.00 95 1014.6
20260510035558 58 0 0.0 0.0 0.00 0.00 0.00 95 1014.6
20260510035058 59 0 0.0 0.0 0.00 0.00 0.00 95 1014.6
20260510034559 59 0 0.0 0.0 0.00 0.00 0.00 95 1014.6
20260510034058 59 0 0.0 0.0 0.00 0.00 0.00 95 1014.5
20260510033601 59 0 0.0 0.0 0.00 0.00 0.00 95 1014.5
20260510033121 59 0 0.0 0.0 0.00 0.00 0.00 95 1014.5
20260510032602 59 0 0.0 0.0 0.00 0.00 0.00 95 1014.4
20260510032058 60 0 0.0 0.0 0.00 0.00 0.00 94 1014.5
20260510031630 60 0 0.0 0.0 0.00 0.00 0.00 94 1014.4
20260510031100 60 0 0.0 0.0 0.00 0.00 0.00 94 1014.5
20260510030557 60 0 0.0 0.0 0.00 0.00 0.00 94 1014.4
20260510025558 60 0 0.0 0.0 0.00 0.00 0.00 94 1014.3
20260510025058 61 0 0.0 0.0 0.00 0.00 0.00 93 1014.3
20260510024557 61 0 0.0 0.0 0.00 0.00 0.00 93 1014.3
20260510024101 61 0 0.0 0.0 0.00 0.00 0.00 93 1014.1
20260510023558 61 0 0.0 0.0 0.00 0.00 0.00 93 1014.1
20260510023059 61 0 0.0 0.0 0.00 0.00 0.00 93 1014.1
20260510022558 61 0 0.0 0.0 0.00 0.00 0.00 92 1014.0
20260510022058 62 0 0.0 0.0 0.00 0.00 0.00 92 1014.0
20260510021557 62 0 0.0 0.0 0.00 0.00 0.00 92 1014.1
20260510021100 62 0 0.0 0.0 0.00 0.00 0.00 92 1014.0
20260510020558 62 0 0.0 0.0 0.00 0.00 0.00 91 1013.9
20260510020056 62 0 0.0 0.0 0.00 0.00 0.00 91 1013.8
20260510015600 62 0 0.0 0.0 0.00 0.00 0.00 91 1013.8
20260510015059 63 0 0.0 0.0 0.00 0.00 0.00 90 1013.7
20260510014608 63 0 0.0 0.0 0.00 0.00 0.00 90 1013.7
20260510014058 63 0 0.0 0.0 0.00 0.00 0.00 90 1013.6
20260510013559 63 0 0.0 0.0 0.00 0.00 0.00 89 1013.6
20260510013058 64 0 0.0 0.0 0.00 0.00 0.00 89 1013.5
20260510012558 64 0 0.0 0.0 0.00 0.00 0.00 88 1013.5
20260510012059 64 0 0.0 0.0 0.00 0.00 0.00 88 1013.4
20260510011601 65 0 0.0 0.0 0.00 0.00 0.00 87 1013.2
20260510011101 65 0 0.0 0.0 0.00 0.00 0.00 87 1013.2
20260510010558 65 0 0.0 0.0 0.00 0.00 0.00 86 1013.1
20260510005558 66 0 0.0 0.0 0.00 0.00 0.00 86 1012.9
20260510005057 67 0 0.0 0.0 0.00 0.00 0.00 85 1012.8
20260510004559 67 0 0.0 0.0 0.00 0.00 0.00 85 1012.8
20260510004058 68 0 0.0 0.0 0.00 0.00 0.00 85 1012.8
20260510003558 68 0 0.0 0.0 0.00 0.00 0.00 84 1012.7
20260510003103 68 0 0.0 0.0 0.00 0.00 0.00 84 1012.5
20260510002558 69 0 0.0 0.0 0.00 0.00 0.00 84 1012.5
20260510002057 69 0 0.0 1.0 0.00 0.00 0.00 84 1012.4
20260510001557 69 0 0.0 5.0 0.00 0.00 0.00 83 1012.3
20260510001058 69 0 0.0 5.0 0.00 0.00 0.00 82 1012.1
20260510000601 69 148 0.0 4.0 0.00 0.00 0.00 79 1012.1
20260510000100 70 0 0.0 1.0 0.00 0.00 0.00 83 1012.0
20260509235600 70 0 0.0 1.0 0.00 0.00 0.00 83 1012.0
20260509235058 70 0 0.0 1.0 0.00 0.00 0.00 82 1012.2
20260509234611 70 0 0.0 1.0 0.00 0.00 0.00 82 1012.1
20260509234057 70 0 0.0 0.0 0.00 0.00 0.00 81 1012.1
20260509233601 71 0 0.0 1.0 0.00 0.00 0.00 80 1012.0
20260509233056 71 0 0.0 1.0 0.00 0.00 0.00 81 1011.8
20260509232558 71 0 0.0 2.0 0.00 0.00 0.00 80 1011.9
20260509232058 71 0 0.0 2.0 0.00 0.00 0.00 80 1011.7
20260509231557 71 200 0.0 4.0 0.00 0.00 0.00 80 1011.7
20260509231057 71 0 0.0 4.0 0.00 0.00 0.00 79 1011.8
20260509230558 71 0 0.0 5.0 0.00 0.00 0.00 80 1011.7
20260509230106 71 277 0.0 5.0 0.00 0.00 0.00 78 1011.7
20260509225557 72 240 0.0 4.0 0.00 0.00 0.00 78 1011.7
20260509225057 72 0 1.0 4.0 0.00 0.00 0.00 78 1011.7
20260509224557 72 0 0.0 4.0 0.00 0.00 0.00 77 1011.7
20260509224058 72 250 0.0 4.0 0.00 0.00 0.00 77 1011.7
20260509223558 72 0 0.0 4.0 0.00 0.00 0.00 77 1011.7
20260509223100 73 230 1.0 5.0 0.00 0.00 0.00 76 1011.7
20260509222559 73 0 0.0 5.0 0.00 0.00 0.00 76 1011.6
20260509222057 73 249 0.0 3.0 0.00 0.00 0.00 75 1011.5
20260509221558 74 0 0.0 3.0 0.00 0.00 0.00 76 1011.5
20260509221059 74 151 0.0 4.0 0.00 0.00 0.00 77 1011.4
20260509220557 74 0 1.0 4.0 0.00 0.00 0.00 74 1011.3
20260509220103 74 229 0.0 4.0 0.00 0.00 0.00 75 1011.2
20260509215558 74 0 1.0 4.0 0.00 0.00 0.00 75 1011.2
20260509215058 74 0 0.0 5.0 0.00 0.00 0.00 74 1011.2
20260509214558 74 0 1.0 5.0 0.00 0.00 0.00 73 1011.2
20260509214058 74 200 1.0 6.0 0.00 0.00 0.00 74 1011.2
20260509213558 74 246 0.0 6.0 0.00 0.00 0.00 73 1011.3
20260509213106 75 242 0.0 5.0 0.00 0.00 0.00 73 1011.3
20260509212557 75 0 0.0 5.0 0.00 0.00 0.00 73 1011.3
20260509212057 75 69 0.0 4.0 0.00 0.00 0.00 73 1011.3
20260509211604 75 0 0.0 4.0 0.00 0.00 0.00 73 1011.4
20260509211057 75 0 1.0 4.0 0.00 0.00 0.00 73 1011.3
20260509210558 75 312 0.0 3.0 0.00 0.00 0.00 70 1011.4
20260509205559 75 0 0.0 4.0 0.00 0.00 0.00 68 1011.3
20260509205101 76 352 0.0 3.0 0.00 0.00 0.00 71 1011.3
20260509204604 75 0 0.0 4.0 0.00 0.00 0.00 69 1011.3
20260509204058 75 307 0.0 4.0 0.00 0.00 0.00 71 1011.2
20260509203557 75 0 0.0 3.0 0.00 0.00 0.00 71 1011.1
20260509203101 75 0 0.0 3.0 0.00 0.00 0.00 69 1010.8
20260509202558 75 0 0.0 3.0 0.00 0.00 0.00 72 1011.0
20260509202058 75 0 0.0 1.0 0.00 0.00 0.00 72 1010.8
20260509201601 75 0 0.0 3.0 0.00 0.00 0.00 72 1010.9
20260509201057 75 0 0.0 3.0 0.00 0.00 0.00 68 1010.9
20260509200557 75 0 0.0 1.0 0.00 0.00 0.00 71 1011.0
20260509200057 75 0 0.0 5.0 0.00 0.00 0.00 72 1010.9
20260509195558 75 0 0.0 5.0 0.00 0.00 0.00 68 1011.1
20260509195057 76 153 0.0 4.0 0.00 0.00 0.00 64 1011.2
20260509194558 76 0 0.0 4.0 0.00 0.00 0.00 68 1011.3
20260509194101 76 210 0.0 2.0 0.00 0.00 0.00 66 1011.3
20260509193557 75 322 0.0 6.0 0.00 0.00 0.00 70 1011.3
20260509193100 75 0 0.0 6.0 0.00 0.00 0.00 65 1011.4
20260509192557 75 174 0.0 5.0 0.00 0.00 0.00 67 1011.4
20260509192057 75 303 1.0 6.0 0.00 0.00 0.00 65 1011.5
20260509191609 75 0 1.0 6.0 0.00 0.00 0.00 65 1011.5
20260509191100 75 123 0.0 5.0 0.00 0.00 0.00 70 1011.5
20260509190557 75 130 1.0 5.0 0.00 0.00 0.00 65 1011.5
20260509190106 75 83 0.0 5.0 0.00 0.00 0.00 66 1011.6